THOR ABLESTAR DEB, 3810

Orbit data source: Space-Track

THOR ABLESTAR DEB, 3810 is space debris in LEO originally from a launch on Fri, 13 Aug 1965 UTC launched from the Air Force Western Test Range (AFWTR). Debris objects in space refer to the collection of defunct objects orbiting the Earth. Examples of debris include non-operational satellites, rocket bodies, and fragments generated from explosions, collisions, or faulty payload assembly.

Loading next visibility...
Identifier
3810, 1965-065P
Orbit
LEO
Last TLE update
12 hours ago
Origin
Manufacturer
Unknown
Mission
Spacecraft
Bus & Motor
Unknown
Mass
Unknown
Launch date (UTC)
1965-08-13 (60 years ago)
Launch vehicle
Unknown
Launch site
Air Force Western Test Range (AFWTR)
Object type
Payload
Rocket body
Debris
Shape & HBR
Unknown
Radar Cross Section
Small (<0.1 m²)

Expand to show TLE details & history

TLE from 12 hours ago
0 THOR ABLESTAR DEB
1 03810U 65065P   25128.69127571  .00000554  00000-0  82510-3 0  9993
2 03810  89.9762 216.5613 0058163  23.1202 103.8772 13.51745639204224
Epoch: 2025-05-08T16:35Z
Definitive object data (Epoch: 2025-05-08T16:35:26.221Z)
Latitude
52.45086°
Longitude
-79.0869°
Altitude
1,085.06 km
Speed
7.309 km/s
True Right ascension
02h 26m 07s
True Declination
52° 17' 31"
Sunlit
Object was in daylight at TLE epoch
Visualization TLE readout
Latitude
49.56372°
Longitude
-79.08513°
Altitude
1,087.574 km
Speed
7.306 km/s
Apparent Right ascension
01h 48m 24s
Apparent Declination
9° 22' 38"
Sunlit
Object is in daylight
Visualization observer readout
Local Sidereal Time
13:11:02
Azimuth
347.945° N
Elevation
-39.953°
Doppler factor
1
Orbital elements
Apogee altitude
1,106.169 km
Perigee altitude
1,019.611 km
Semi-major axis
7,441.027 km
Eccentricity
0.0058163
Inclination
89.9762°
RAAN
216.5613°
Arg. of periapsis
23.1202°
True anomaly
104.52311°
Mean anomaly
103.8772°
Eccentric anomaly
104.20027°
Mean motion
3.38138 °/min
BSTAR
0.0008251
Orbital period
106.47 mins
Loading maneuver chart data...
Loading SW <> Apogee altitude chart data...
Loading historical data...
Loading historical data...
Loading historical data...
Loading historical data...
Loading historical data...
Loading historical data...
Loading historical data...

THOR ABLESTAR DEB Visibility forecast

Observer location: undefined°, undefined°

Span
Click to sort rows by Start time (UTC) header in descending order
Start Az.
Max El. time (UTC)
Max El. Az.
Max El.
End time (UTC)
End Az.
12 mins2025-05-09 06:16:26.562Z179.3° S2025-05-09 06:22:26.562Z292.443° WNW44.765°2025-05-09 06:28:26.562Z356.282° N
11 mins2025-05-09 17:26:26.562Z21.429° NNE2025-05-09 17:31:26.562Z86.674° E34.076°2025-05-09 17:37:26.562Z155.151° SSE
9 mins2025-05-09 19:13:26.562Z332.722° NNW2025-05-09 19:17:26.562Z284.512° WNW27.264°2025-05-09 19:22:26.562Z228.589° WSW
|